Location: Strawberry
(45.6646°N, 111.9596°W)
Time: 23:39:27
(UTC+00:00)

Vanguard 1 Rocket - Pass Details

Date: 29 September 2022
Orbit: 650 x 4225 km, 34.3° (Epoch: 05 December)

Event Time Altitude Azimuth Distance (km) Brightness Sun altitude
Rises 02:33:11 0° 216° (SW) 8,112 12.6 -14.7°
Reaches altitude 10° 02:40:23 10° 207° (SSW) 6,656 11.9 -15.9°
Maximum altitude 02:55:37 29° 158° (SSE) 3,900 10.2 -18.5°
Enters shadow 03:00:46 23° 126° (SE) 3,699 9.9 -19.4°
